• In Netherlands
  • List of Countries
  • For 7 days
  • Water Temperature
  • Satellite Maps
  • Weather Map
  • Weather Widgets
  • user-avatar
    Login

    Hourly Weather Darwin

    Today, 21 January, Saturday

    Time Temperature Precipitation Wind Pressure Humidity
    00:00 +28°C° 0.2 mm 2 mps 756 mmHg 86%
    01:00 +28°C° 0 mm 3 mps 756 mmHg 86%
    02:00 +28°C° 0 mm 3 mps 756 mmHg 85%
    03:00 +28°C° 0 mm 3 mps 756 mmHg 84%
    04:00 +28°C° 1.2 mm 3 mps 756 mmHg 85%
    05:00 +28°C° 1.2 mm 3 mps 756 mmHg 86%
    06:00 +28°C° 1.2 mm 4 mps 756 mmHg 86%
    07:00 +29°C° 0.9 mm 4 mps 757 mmHg 79%
    08:00 +32°C° 0.9 mm 4 mps 757 mmHg 72%
    09:00 +31°C° 0 mm 3 mps 758 mmHg 73%
    10:00 +31°C° 0.1 mm 3 mps 757 mmHg 72%
    11:00 +31°C° 0.1 mm 3 mps 757 mmHg 70%
    12:00 +31°C° 0.1 mm 3 mps 757 mmHg 68%
    13:00 +31°C° 0 mm 3 mps 756 mmHg 67%
    14:00 +31°C° 0 mm 3 mps 756 mmHg 66%
    15:00 +31°C° 0 mm 3 mps 756 mmHg 69%
    16:00 +31°C° 0 mm 3 mps 756 mmHg 71%
    17:00 +30°C° 0 mm 3 mps 756 mmHg 73%
    18:00 +30°C° 0 mm 3 mps 756 mmHg 74%
    19:00 +30°C° 0 mm 3 mps 756 mmHg 76%
    20:00 +29°C° 0 mm 3 mps 757 mmHg 77%
    21:00 +29°C° 0 mm 3 mps 757 mmHg 80%
    22:00 +29°C° 0.1 mm 3 mps 757 mmHg 80%
    23:00 +29°C° 0.1 mm 3 mps 757 mmHg 81%

    Tomorrow, 22 January, Sunday

    Time Temperature Precipitation Wind Pressure Humidity
    00:00 +29°C° 0.1 mm 3 mps 757 mmHg 82%
    01:00 +28°C° 0.2 mm 3 mps 756 mmHg 82%
    02:00 +28°C° 0.2 mm 3 mps 756 mmHg 83%
    03:00 +28°C° 0.2 mm 3 mps 756 mmHg 84%
    04:00 +28°C° 0.2 mm 3 mps 756 mmHg 84%
    05:00 +28°C° 0.2 mm 4 mps 756 mmHg 83%
    06:00 +28°C° 0.2 mm 4 mps 756 mmHg 83%
    07:00 +30°C° 0 mm 4 mps 756 mmHg 76%
    08:00 +32°C° 0 mm 5 mps 757 mmHg 70%
    09:00 +34°C° 0 mm 5 mps 757 mmHg 63%
    10:00 +34°C° 0.3 mm 5 mps 756 mmHg 60%
    11:00 +35°C° 0.3 mm 6 mps 756 mmHg 57%
    12:00 +36°C° 0.3 mm 6 mps 756 mmHg 54%
    13:00 +36°C° 0.3 mm 6 mps 755 mmHg 54%
    14:00 +36°C° 0.3 mm 7 mps 755 mmHg 55%
    15:00 +36°C° 0.3 mm 7 mps 755 mmHg 56%
    16:00 +35°C° 0 mm 7 mps 755 mmHg 59%
    17:00 +34°C° 0 mm 7 mps 755 mmHg 63%
    18:00 +33°C° 0 mm 6 mps 754 mmHg 66%
    19:00 +32°C° 0.6 mm 6 mps 755 mmHg 69%
    20:00 +32°C° 0.6 mm 5 mps 755 mmHg 72%
    21:00 +30°C° 0.6 mm 5 mps 756 mmHg 75%
    22:00 +30°C° 0.3 mm 5 mps 756 mmHg 76%
    23:00 +30°C° 0.3 mm 5 mps 756 mmHg 78%

    Day after tomorrow, 23 January, Monday

    Time Temperature Precipitation Wind Pressure Humidity
    00:00 +29°C° 0.3 mm 5 mps 756 mmHg 80%
    01:00 +29°C° 0.8 mm 5 mps 755 mmHg 81%
    02:00 +29°C° 0.8 mm 5 mps 755 mmHg 82%
    03:00 +29°C° 0.8 mm 6 mps 754 mmHg 83%
    04:00 +29°C° 0.9 mm 6 mps 754 mmHg 82%
    05:00 +29°C° 0.9 mm 6 mps 754 mmHg 81%
    06:00 +29°C° 0.9 mm 6 mps 755 mmHg 81%
    07:00 +30°C° 0.2 mm 6 mps 755 mmHg 77%
    08:00 +32°C° 0.2 mm 6 mps 755 mmHg 73%
    09:00 +33°C° 0.2 mm 6 mps 756 mmHg 69%
    10:00 +34°C° 0.6 mm 6 mps 755 mmHg 66%
    11:00 +35°C° 0.6 mm 6 mps 755 mmHg 62%
    12:00 +36°C° 0.6 mm 6 mps 754 mmHg 58%
    13:00 +35°C° 0.6 mm 6 mps 754 mmHg 61%
    14:00 +35°C° 0.6 mm 6 mps 754 mmHg 64%
    15:00 +34°C° 0.6 mm 6 mps 753 mmHg 66%
    16:00 +33°C° 1.5 mm 6 mps 753 mmHg 72%
    17:00 +32°C° 1.5 mm 6 mps 753 mmHg 78%
    18:00 +29°C° 1.5 mm 5 mps 753 mmHg 84%
    19:00 +29°C° 1.4 mm 5 mps 754 mmHg 85%
    20:00 +29°C° 1.4 mm 5 mps 755 mmHg 87%
    21:00 +29°C° 1.4 mm 4 mps 755 mmHg 88%
    22:00 +28°C° 2.3 mm 5 mps 756 mmHg 88%
    23:00 +28°C° 2.3 mm 5 mps 756 mmHg 88%

    24 January, Tuesday

    Time Temperature Precipitation Wind Pressure Humidity
    00:00 +28°C° 2.3 mm 6 mps 756 mmHg 89%
    01:00 +28°C° 1.9 mm 6 mps 755 mmHg 89%
    02:00 +28°C° 1.9 mm 6 mps 755 mmHg 90%
    03:00 +27°C° 1.9 mm 6 mps 754 mmHg 91%
    04:00 +27°C° 0.9 mm 6 mps 754 mmHg 91%
    05:00 +27°C° 0.9 mm 5 mps 754 mmHg 91%
    06:00 +27°C° 0.9 mm 5 mps 755 mmHg 91%
    07:00 +28°C° 0.7 mm 5 mps 755 mmHg 86%
    08:00 +29°C° 0.7 mm 4 mps 755 mmHg 82%
    09:00 +30°C° 0.7 mm 4 mps 755 mmHg 77%
    10:00 +33°C° 0.7 mm 4 mps 755 mmHg 70%
    11:00 +35°C° 0.7 mm 4 mps 755 mmHg 63%
    12:00 +36°C° 0.7 mm 4 mps 755 mmHg 56%
    13:00 +36°C° 1.1 mm 5 mps 754 mmHg 58%
    14:00 +35°C° 1.1 mm 5 mps 753 mmHg 60%
    15:00 +35°C° 1.1 mm 6 mps 753 mmHg 63%
    16:00 +34°C° 0.1 mm 6 mps 753 mmHg 65%
    17:00 +34°C° 0.1 mm 5 mps 753 mmHg 68%
    18:00 +33°C° 0.1 mm 5 mps 753 mmHg 71%
    19:00 +32°C° 0.2 mm 5 mps 754 mmHg 74%
    20:00 +30°C° 0.2 mm 5 mps 755 mmHg 77%
    21:00 +30°C° 0.2 mm 5 mps 755 mmHg 80%
    22:00 +29°C° 0.4 mm 5 mps 755 mmHg 81%
    23:00 +29°C° 0.4 mm 5 mps 755 mmHg 81%

    25 January, Wednesday

    Time Temperature Precipitation Wind Pressure Humidity
    00:00 +29°C° 0.4 mm 5 mps 755 mmHg 82%
    01:00 +29°C° 1.8 mm 5 mps 754 mmHg 85%
    02:00 +28°C° 1.8 mm 5 mps 754 mmHg 88%
    03:00 +28°C° 1.8 mm 5 mps 754 mmHg 91%
    04:00 +28°C° 2.5 mm 5 mps 754 mmHg 91%
    05:00 +28°C° 2.5 mm 5 mps 754 mmHg 91%
    06:00 +28°C° 2.5 mm 4 mps 754 mmHg 91%
    07:00 +29°C° 1.8 mm 4 mps 754 mmHg 86%
    08:00 +30°C° 1.8 mm 4 mps 755 mmHg 82%
    09:00 +32°C° 1.8 mm 4 mps 755 mmHg 77%
    10:00 +33°C° 1 mm 4 mps 755 mmHg 67%
    11:00 +35°C° 1 mm 4 mps 754 mmHg 58%
    12:00 +37°C° 1 mm 4 mps 754 mmHg 48%
    13:00 +36°C° 1 mm 5 mps 753 mmHg 53%
    14:00 +36°C° 1 mm 6 mps 752 mmHg 57%
    15:00 +35°C° 1 mm 6 mps 752 mmHg 62%
    16:00 +34°C° 2.2 mm 6 mps 752 mmHg 68%
    17:00 +33°C° 2.2 mm 6 mps 752 mmHg 73%
    18:00 +30°C° 2.2 mm 6 mps 753 mmHg 79%
    19:00 +30°C° 1.7 mm 5 mps 753 mmHg 81%
    20:00 +29°C° 1.7 mm 5 mps 753 mmHg 83%
    21:00 +28°C° 1.7 mm 5 mps 754 mmHg 86%
    22:00 +28°C° 1.1 mm 5 mps 753 mmHg 87%
    23:00 +28°C° 1.1 mm 5 mps 753 mmHg 87%

    26 January, Thursday

    Time Temperature Precipitation Wind Pressure Humidity
    00:00 +28°C° 1.1 mm 5 mps 753 mmHg 88%
    01:00 +27°C° 1 mm 5 mps 752 mmHg 88%
    02:00 +27°C° 1 mm 5 mps 752 mmHg 89%
    03:00 +27°C° 1 mm 5 mps 751 mmHg 89%
    04:00 +27°C° 0.8 mm 5 mps 751 mmHg 89%
    05:00 +27°C° 0.8 mm 4 mps 752 mmHg 90%
    06:00 +27°C° 0.8 mm 4 mps 752 mmHg 90%
    07:00 +28°C° 1.6 mm 4 mps 752 mmHg 87%
    08:00 +29°C° 1.6 mm 4 mps 752 mmHg 84%
    09:00 +29°C° 1.6 mm 4 mps 753 mmHg 81%
    10:00 +30°C° 2.2 mm 4 mps 752 mmHg 81%
    11:00 +30°C° 2.2 mm 4 mps 752 mmHg 80%
    12:00 +32°C° 2.2 mm 4 mps 751 mmHg 79%
    13:00 +32°C° 2.8 mm 4 mps 751 mmHg 80%
    14:00 +32°C° 2.8 mm 4 mps 750 mmHg 80%
    15:00 +32°C° 2.8 mm 4 mps 749 mmHg 81%
    16:00 +32°C° 2.6 mm 4 mps 750 mmHg 82%
    17:00 +30°C° 2.6 mm 4 mps 750 mmHg 83%
    18:00 +30°C° 2.6 mm 4 mps 750 mmHg 85%
    19:00 +29°C° 3.5 mm 5 mps 750 mmHg 87%
    20:00 +29°C° 3.5 mm 5 mps 751 mmHg 90%
    21:00 +28°C° 3.5 mm 5 mps 751 mmHg 92%
    22:00 +28°C° 2 mm 5 mps 751 mmHg 92%
    23:00 +28°C° 2 mm 5 mps 750 mmHg 93%
    Show more